Location: Cave
(41.8160°N, 12.9350°E)
Time: 17:00:10
(UTC+02:00)

ISS - Pass Details

Date: 07 July 2019
Orbit: 409 x 418 km, 51.6° (Epoch: 17 July)

Event Time Altitude Azimuth Distance (km) Brightness Sun altitude
Exits shadow 04:04:58 - 284° (WNW) 1,556 -1.1 -14.3°
Reaches altitude 10° 04:05:12 10° 286° (WNW) 1,478 -1.2 -14.3°
Maximum altitude 04:07:54 23° 341° (NNW) 936 -1.7 -13.9°
Drops below altitude 10° 04:10:37 10° 36° (NE) 1,478 0.5 -13.6°
Sets 04:13:00 0° 52° (NE) 2,341 1.9 -13.3°
